Location: Eexterzandvoort
(53.0303°N, 6.7884°E)
Time: 00:50:32
(UTC+00:00)

Exosat Rocket - Pass Details

Date: 19 May 2025
Orbit: 761 x 2512 km, 72.3° (Epoch: 15 June)

Event Time Altitude Azimuth Distance (km) Brightness Sun altitude
Rises 23:08:43 0° 329° (NNW) 3,392 8.0 -16.8°
Reaches altitude 10° 23:11:13 10° 326° (NW) 2,367 7.0 -16.9°
Maximum altitude 23:16:14 59° 247° (WSW) 878 3.7 -16.9°
Enters shadow 23:18:40 29° 179° (S) 1,387 4.2 -16.9°
